map of SSA home
Great Circle Mapper logo
SSA - Airport
Location
City:  Salvador, Bahia, Brazil
Name:Deputado Luís Eduardo Magalhães International Airport
Old (Alt.):Dois de Julho International Airport
ICAO:SBSV
IATA:SSA

Details
Type:Airport (Aerodrome, Airfield)
Use:Public/Civil, Military, International (customs port of entry)
Latitude:12°54'40"S (-12.910993)
Longitude:38°19'52"W (-38.331043)
Datum:WGS 1984
Elevation:64 ft (20 m)
Variation:23.41°W (WMM2015 magnetic declination)
-0.02° annual change
Runways:2
Longest:9859 × 148 ft (3005 × 45 m), paved

Time
Time Zone:UTC-3
Local Time:

Weather
METAR:SBSV 302000Z 15004KT 9999 SCT017 BKN070 26/22 Q1013
TAF:SBSV 301600Z 3018/3118 13009KT 7000 SCT017 TN25/3108Z TX29/3116Z
RMK PEI

Related Locations
Nearby:
Farthest:GUM: 12234 mi / 19690 km
Agana [Guam Intl (Antonio B. Won Pat Intl)], GU, US

Find:

   beyond  
but within

Other Information
Maps:
NOTAMs:
Links:
Sources:

  
flag of Brazil
flag of Bahia
  

Sectional Chart

Flight Planning
at skyvector.com

Satellite Image

Google Maps Satellite view

 

Copyright © 2004-2016 Karl L. Swartz. All rights reserved.
The Great Circle Mapper name and logo are trademarks of the Great Circle Mapper.
All other trademarks mentioned herein belong to their respective owners.
Please see credits for attibutions and further copyright information.

  Follow gcmap on Facebook Follow gcmap on Twitter Follow gcmap on Google+ GCmap on LinkedIn

hCard Microformat

Geo Microformat